www.pogodaiklimat.ru

Погода и климат >> Архив погоды >> Россия >> Якутия >> Бестяхская Звероферма


ПОГОДА в Бестяхской Звероферме

  • Прогноз погоды в Бестяхской Звероферме
  • Монитор погоды в Бестяхской Звероферме

АРХИВ ПОГОДЫ в Бестяхской Звероферме

Время (UTC), дата Ветер
(напр.,м/с)
 
Видим.   Явления Облачность Т
(С)
Тd
(С)
f
(%)
Тe
(С)
Тes
(С)
Комфортность P
(гПа)
Po
(гПа)
Тmin
(С)
Tmax
(С)
R
(мм)
R24
(мм)
S
(см)
06 9.09 СЗ 3 50 км 8/8 600 м
[Cb cap]
+17.2 +7.2 52 +17 +18 1008.0 999.3
09 9.09 В 1 50 км ясно +17.1 +10.1 63 +18 +19 1008.3 999.6
12 9.09 Ю 1 50 км ясно +7.0 +6.1 94 +6 +6 1008.7 999.7 +19.1
15 9.09 Ю 1 50 км {ливн. осадки} 10/6 600 м
[Cu Sc Ac trans]
+10.3 +8.3 87 +10 +10 1007.1 998.2
18 9.09 З 2 50 км {ливн. осадки} 10/5 600 м
[Cu Sc Ac trans]
+12.6 +7.0 69 +12 +12 1006.6 997.9
21 9.09 С 2 50 км 4/1 600 м
[Cu hum Ac lent Cc]
+10.7 +6.9 77 +9 +9 1008.4 999.5
00 10.09 С 3 50 км 8/8 600 м
[Cu hum]
+9.9 +6.2 78 +8 +8 1010.9 1002.0 +5.5 0.4
03 10.09 С 2 50 км 9/9 600 м
[Sc]
+10.5 +4.8 68 +9 +10 1012.6 1003.7
06 10.09 В 1 50 км 6/6 600 м
[Cu hum]
+11.8 +4.8 62 +12 +14 1012.5 1003.6
09 10.09 СВ 1 50 км 9/8 600 м
[Sc Ac cast]
+10.4 +5.1 70 +10 +10 1012.3 1003.4
12 10.09 штиль 0 50 км 8/8 600 м
[Sc]
+6.3 +4.2 86 +5 +5 1012.1 1003.1 +12.0
15 10.09 штиль 0 50 км 10/8 600 м
[Sc Ac trans]
+5.3 +4.6 95 +4 +4 1010.7 1001.7
18 10.09 В 1 50 км в посл. час ливневой дождь 10/6 600 м
[Cb cap Ac trans]
+6.5 +6.1 97 +5 +5 1009.1 1000.1
21 10.09 ЮВ 1 50 км 10/5 600 м
[Cu Sc Ac trans]
+6.9 +6.5 97 +6 +6 1007.7 998.7
00 11.09 Ю 2 50 км 10/10 600 м
[Cb cap]
+7.8 +7.2 96 +6 +6 1007.1 998.2 +4.0 0.8
03 11.09 ЮВ 2 50 км {ливн. осадки} 10/10 600 м
[Cb cap]
+11.0 +8.4 84 +10 +10 1006.4 997.5
06 11.09 Ю 3 50 км {ливн. осадки} 10/10 600 м
[Cu Sc]
+13.1 +7.8 70 +12 +12 1005.7 997.0
09 11.09 Ю 2 50 км 8/4 600 м
[Cu Sc Cc]
+13.6 +7.7 67 +13 +13 1005.0 996.3
12 11.09 В 1 50 км 8/0
[Ac lent Cc]
+7.1 +6.2 94 +6 +6 1005.5 996.5 +14.6 0.1
15 11.09 В 1 50 км 4/3 600 м
[Sc Ac lent Cc]
+6.3 +5.6 95 +5 +5 1005.6 996.6
18 11.09 Ю 1 50 км 3/3 600 м
[Sc]
+6.1 +5.4 95 +5 +5 1005.5 996.5
21 11.09 Ю 2 50 км 6/4 600 м
[Cu Sc Ac trans]
+6.2 +5.5 95 +4 +4 1005.5 996.5
00 12.09 штиль 0 50 км 3/1 600 м
[Cu hum Ac trans]
+8.6 +7.3 92 +8 +9 1005.3 996.4 +4.0
03 12.09 ЮВ 3 50 км ясно +14.4 +7.8 65 +14 +17 1004.4 995.7
06 12.09 ЮВ 2 50 км 1/1 600 м
[Cu hum]
+17.1 +8.3 56 +17 +20 1002.8 994.2
09 12.09 ЮВ 1 50 км 10/0
[Ac trans Cs]
+16.1 +7.8 58 +17 +17 1001.2 992.6
12 12.09 штиль 0 50 км 10/0
[Ac trans Cs]
+8.3 +6.1 86 +7 +7 1000.2 991.4 +17.5
18 12.09 штиль 0 50 км 10/6 600 м
[Cu Sc Ac trans Cs]
+6.5 +5.1 91 +5 +5 995.8 986.9
21 12.09 С 1 50 км {ливн. осадки} 10/1 600 м
[Cu hum Ac trans Cs]
+7.3 +6.9 97 +6 +6 993.5 984.7
00 13.09 СЗ 2 10 км слаб. дождь 10/8 300 м
[Frnb As op]
+8.7 +8.3 97 +7 +7 991.8 983.1 +4.9 2
03 13.09 С 1 10 км слаб. дождь 10/10 300 м
[Frnb Ns]
+9.6 +9.4 99 +9 +9 990.7 982.0
06 13.09 СВ 1 20 км слаб. дождь 10/10 300 м
[Frnb Ns]
+10.7 +10.3 97 +10 +10 989.4 980.7
09 13.09 З 5-11
{12}
10 км слаб. дождь 10/10 300 м
[Frnb Ns]
+4.7 +4.2 97 -0 -0 991.7 982.9
12 13.09 З 5-11
{12}
4000 м слаб. ливневой дождь со снегом 10/10 300 м
[Cb cap]
+1.0 +0.7 98 -5 -5 994.4 985.3 +11.0 9
15 13.09 ЮЗ 3
{11}
50 км {ливн. осадки} 8/3 600 м
[Sc Ac cast Cc]
+1.3 -0.9 85 -3 -3 996.1 987.0
18 13.09 Ю 2 50 км {ливн. осадки} 3/0
[Ac cast]
+0.1 -4.3 72 -3 -3 997.6 988.5
21 13.09 Ю 3 50 км ясно -1.5 -4.9 78 -6 -6 999.3 990.2
00 14.09 Ю 3 50 км ясно +1.0 -3.2 74 -3 -2 1001.4 992.3 -1.7 0.9
03 14.09 Ю 3 50 км ясно +6.1 -4.3 47 +4 +7 1001.8 992.9
06 14.09 ЮВ 3 50 км 3/0
[Ac trans]
+7.9 -6.3 36 +6 +8 1001.0 992.1
09 14.09 ЮВ 2 50 км 8/8 600 м
[Sc]
+6.7 -3.7 47 +5 +5 1001.3 992.4
12 14.09 Ю 2 50 км 10/10 600 м
[Sc]
+6.0 -2.9 53 +4 +4 1002.5 993.6 +8.2
15 14.09 штиль 0 50 км 4/0
[Ac cast Cc]
-2.9 -4.6 88 -4 -4 1003.3 994.0
18 14.09 штиль 0 50 км ясно -6.2 -6.6 97 -7 -7 1003.9 994.6
21 14.09 ЮВ 1 50 км 1/0
[Ac lent]
-6.1 -6.5 97 -9 -9 1004.8 995.4
00 15.09 В 1 50 км 10/0
[Ac trans Cs]
+2.5 +0.9 89 +1 +2 1005.2 996.0 -7.6
03 15.09 СВ 2 50 км 10/10 600 м
[Sc]
+6.0 -1.9 57 +4 +4 1004.1 995.1
06 15.09 СВ 2 50 км 10/10 600 м
[Sc]
+9.1 -3.0 42 +8 +8 1001.1 992.3
09 15.09 Ю 4 50 км в посл. час ливневой дождь 10/10 600 м
[Cb cap]
+8.7 -1.8 48 +6 +6 1001.5 992.7
12 15.09 Ю 4
{10}
50 км {ливн. осадки} 9/8 600 м
[Cu Sc Ac trans]
+2.9 +0.5 84 -2 -2 1003.6 994.7 +9.8 0.0
15 15.09 ЮВ 1
{10}
50 км 9/0
[Ac trans Ci fib]
+1.5 -0.7 85 -0 -0 1005.8 996.6
18 15.09 штиль 0 50 км 10/0
[Ac trans Ci fib]
+0.9 -0.5 90 -0 -0 1006.7 997.5
21 15.09 штиль 0 50 км 10/6 300 м
[St Ac trans]
-0.1 -1.3 92 -1 -1 1007.0 997.8
00 16.09 штиль 0 50 км в посл. час ливневой снег 10/10 600 м
[Cb cap]
+0.6 0.0 96 -1 -1 1008.2 999.0 -0.4 0.3

 

Местоположение метеостанции Бестяхская Звероферма (Якутия, Россия): широта 65.30 долгота 124.10 высота над уровнем моря 73 м.

В архиве по умолчанию представлена погода в Бестяхской Звероферме за последнюю неделю. Архивные данные за месяц целиком и за предыдущие месяцы, начиная с января 2011 года, Вы можете получить, выбрав интересующий диапазон дат из раскрывающегося списка и нажав кнопку "Ввод!".


*Определитесь, кто Вы:
робот инопланетянин человек

Внимание! Время в таблицах - всемирное. Для получения местного времени необходимо прибавить поправку, которая равна 9 ч.

Смотрите также архив погоды в соседних городах и на ближайших метеорологических станциях:

Погода в Хатырык-Хомо (Якутия, Россия) (154 км)
Погода в Сого-Хае (Якутия, Россия) (157 км)
Погода в Жиганске (Якутия, Россия) (169 км)
Погода в Вилюйске (Якутия, Россия) (208 км)
Погода в Сангаре (Якутия, Россия) (217 км)
Погода в Себян-Кюеле (Якутия, Россия) (274 км)
Погода в Верхневилюйске (Якутия, Россия) (278 км)
Погода в Эйке (Якутия, Россия) (317 км)
Погода в Батамае (Якутия, Россия) (322 км)
Погода в Сеген-Кюеле (Якутия, Россия) (329 км)

Пояснения к столбцам:

Ветер - указаны скорость ветра в м/с - средняя за 10 мин, порывы в срок и между сроками (в фигурных скобках) и направление, откуда дует ветер: С - северный, СВ - северо-восточный, В - восточный, ЮВ - юго-восточный, Ю - южный, ЮЗ - юго-западный, З - западный, СЗ - северо-западный.
Видимость - горизонтальная дальность видимости в метрах или километрах. При видимости от 1 до 10 км при отсутствии осадков обычно наблюдается дымка, при ухудшении видимости до 1 км и менее - туман. В сухую погоду видимость может ухудшаться дымом, пылью или мглою.
Явления - указаны атмосферные явления, наблюдавшиеся в срок или в последний час перед сроком; фигурными скобками обозначены явления, наблюдавшиеся между сроками (за 1-3 часа до срока); квадратными скобками обозначены град или гололедные отложения с указанием их диаметра в мм.
Облачность - указаны через наклонную черту общая и нижняя облачность в баллах и высота нижней границы облаков в метрах; квадратными скобками обозначены формы облаков: Ci - перистые, Cs - перисто-слоистые, Cc - перисто-кучевые, Ac - высококучевые, As - высокослоистые, Sc - слоисто-кучевые, Ns - слоисто-дождевые, Cu - кучевые, Cb - кучево-дождевые. Подробнее классификацию облаков см. в Атласе облаков (PDF).
T - Температура воздуха - температура, измеренная на высоте 2 м над землей.
Td - Температура точки росы - температура, при понижении до которой содержащийся в воздухе водяной пар достигнет насыщения.
f - Относительная влажность воздуха - влажноcть воздуха, измеренная на высоте 2 м над землей.
Te - Эффективная температура - температура, которую ощущает одетый по сезону человек в тени. Характеристика душности погоды. При расчете учитывается влияние влажности воздуха и скорости ветра на теплоощущения человека.
Tes - Эффективная температура на солнце - температура, которую ощущает человек, с поправкой на солнечный нагрев. Характеристика знойности погоды. Зависит от высоты солнца над горизонтом, облачности и скорости ветра. Ночью, в пасмурную погоду, а также при ветре 12 м/с и более поправка равна нулю.
P - Атмосферное давление - приведенное к уровню моря атмосферное давление.
Po - Атмосферное давление - измеренное на уровне метеостанции атмосферное давление.
Tmin - Минимальная температура - минимум температуры воздуха на высоте 2 м над землей.
Tmax - Максимальная температура - максимум температуры воздуха на высоте 2 м над землей.
R - Количество осадков - Количество выпавших осадков за период времени, мм. При наведении курсора мыши на число - период времени, за который выпало указанное количество осадков.
R24 - Количество осадков - Количество выпавших осадков за 24 часа, мм.
S - Снежный покров - Высота снежного покрова, см. При наведении курсора мыши на число - состояние снежного покрова и степень покрытия местности в баллах.